Regional Weather Roundup
Issued by NWS Goodland, KS

Home | Current Version | Previous Version | Graphics & Text | Print | Product List | Glossary On
Versions: 1 2 3 4 5 6 7 8 9 10 11 12 13 14 15 16 17 18 19 20 21 22 23 24 25 26 27 28 29 30 31 32 33 34 35 36 37 38 39 40 41 42 43 44 45 46 47 48 49 50
000
ASUS43 KGLD 030008
RWRGLD

GOODLAND FORECAST AREA HOURLY WEATHER ROUNDUP
NATIONAL WEATHER SERVICE GOODLAND KS
600 PM MDT WED SEP 02 2015

...OFFICIAL OBSERVATIONS...

CITY           SKY/WX    TMP DP  RH WIND       PRES   REMARKS
GOODLAND KS    SUNNY     93  48  21 S5        29.87S
HILL CITY KS   SUNNY     99  56  23 S10       29.79S
IMPERIAL NEB   MOSUNNY   96  51  21 SE7       29.85S
MCCOOK NEB     SUNNY     96  54  24 E8        29.81F
AKRON CO       SUNNY     90  37  15 CALM      29.96S
BURLINGTON CO  SUNNY     89  44  20 W7        29.93S
LIMON CO       MOSUNNY   85  38  18 S5        30.03S
$$

...UNOFFICIAL OBSERVATIONS...

CITY           SKY/WX    TMP DP  RH WIND       PRES   REMARKS
COLBY KS       MOSUNNY   93  61  33 SE7       29.86S
GOVE KS          N/A     96  32  10 MISG        N/A
LENORA KS        N/A     97  32  10 MISG        N/A
NORTON KS      SUNNY     93  48  21 SE5       29.79
TRENTON NEB      N/A     95  32  11 E10         N/A
KIT CARSON CO    N/A     92  46  20 MISG        N/A
YUMA CO          N/A     92  46  20 CALM        N/A
$$


USA.gov is the U.S. government's official web portal to all federal, state and local government web resources and services.